Aurora, CO

11:31 AM MST on February 14, 2016 (GMT -0700)
Denver International

Weather History for KDEN - January, 2012

Change the Weather History Date:

Thursday, January 5, 2012

  Actual Average Record
Temperature  
Mean Temperature 53 °F 30 °F  
Max Temperature 65 °F 43 °F 72 °F (1956)
Min Temperature 40 °F 18 °F -17 °F (1974)
Degree Days  
Heating Degree Days 12 35  
Month to date heating degree days 125 175  
Since 1 July heating degree days 2559 2643  
Cooling Degree Days 0 0  
Month to date cooling degree days 0 0  
Year to date cooling degree days 0 0  
Growing Degree Days 2 (Base 50)    
Moisture  
Dew Point 19 °F    
Average Humidity 30    
Maximum Humidity 41    
Minimum Humidity 18    
Precipitation  
Precipitation 0.00 in 0.01 in 0.25 in (1989)
Month to date precipitation 0.00 0.07  
Year to date precipitation 0.00 0.07  
Snow  
Snow 0.00 in - - ()
Month to date snowfall 0  
Since 1 July snowfall 29.5  
Snow Depth 0.00 in    
Sea Level Pressure  
Sea Level Pressure 29.98 in    
Wind  
Wind Speed 10 mph (SW)    
Max Wind Speed 20 mph    
Max Gust Speed 24 mph    
Visibility 10 miles    
Events      
T = Trace of Precipitation, MM = Missing Value Source: NWS Daily Summary

Daily Weather History Graph

Daily Weather History Graph

Search for Another Location

Airport or City:

Trip Planner

Search our weather history database for the weather conditions in past years. The results will help you decide how hot, cold, wet, or windy it might be!

Date:

Astronomy

Jan. 05, 2012 Rise Set
Actual Time 7:20 AM MST 4:47 PM MST
Civil Twilight 6:50 AM MST 5:17 PM MST
Nautical Twilight 6:16 AM MST 5:51 PM MST
Astronomical Twilight 5:43 AM MST 6:24 PM MST
Moon 1:53 PM MST (1/5) 4:07 AM MST (1/5)
Length of Visible Light 10h 27m
Length of Day
9h 27m
Waxing Gibbous, 88% of the Moon is Illuminated
Jan 5
Waxing Gibbous
Jan 9
Full
Jan 16
Last Quarter
Jan 23
New
Jan 30
First Quarter

Hourly Weather History & Observations

Time (MST) Temp. Windchill Dew Point Humidity Pressure Visibility Wind Dir Wind Speed Gust Speed Precip Events Conditions
12:53 AM 43.0 °F 35.4 °F 18.0 °F 37% 30.17 in 10.0 mi SSW 16.1 mph - N/A   Partly Cloudy
1:53 AM 45.0 °F 37.6 °F 17.1 °F 33% 30.16 in 10.0 mi SSW 17.3 mph - N/A   Partly Cloudy
2:53 AM 45.0 °F 38.5 °F 17.1 °F 33% 30.14 in 10.0 mi SSW 13.8 mph - N/A   Partly Cloudy
3:53 AM 44.1 °F 37.1 °F 17.1 °F 34% 30.13 in 10.0 mi SW 15.0 mph - N/A   Partly Cloudy
4:53 AM 42.1 °F 34.9 °F 18.0 °F 38% 30.15 in 10.0 mi SW 13.8 mph - N/A   Partly Cloudy
5:53 AM 43.0 °F 35.1 °F 19.0 °F 38% 30.14 in 10.0 mi SSW 17.3 mph - N/A   Partly Cloudy
6:53 AM 42.1 °F 34.2 °F 19.0 °F 40% 30.11 in 10.0 mi SSW 16.1 mph - N/A   Partly Cloudy
7:53 AM 42.8 °F 35.4 °F 19.4 °F 39% 30.16 in 10.0 mi SW 15.0 mph - N/A   Partly Cloudy
8:53 AM 46.9 °F - 19.9 °F 34% 30.11 in 10.0 mi SW 13.8 mph - N/A   Partly Cloudy
9:53 AM 53.6 °F - 21.2 °F 28% 30.16 in 10.0 mi SSW 9.2 mph - N/A   Partly Cloudy
10:53 AM 55.9 °F - 23.0 °F 28% 30.02 in 10.0 mi SSW 10.4 mph - N/A   Partly Cloudy
11:53 AM 61.0 °F - 19.0 °F 20% 29.96 in 10.0 mi SW 6.9 mph - N/A   Scattered Clouds
12:53 PM 63.0 °F - 21.0 °F 20% 29.91 in 10.0 mi WSW 4.6 mph - N/A   Scattered Clouds
1:53 PM 63.0 °F - 21.9 °F 21% 29.87 in 10.0 mi SE 4.6 mph - N/A   Scattered Clouds
2:53 PM 64.0 °F - 19.9 °F 18% 29.85 in 10.0 mi Calm Calm - N/A   Scattered Clouds
3:53 PM 61.0 °F - 24.1 °F 24% 29.86 in 10.0 mi SSE 3.5 mph - N/A   Scattered Clouds
4:53 PM 55.0 °F - 17.1 °F 23% 29.87 in 10.0 mi South 4.6 mph - N/A   Scattered Clouds
5:53 PM 53.1 °F - 17.1 °F 24% 29.87 in 10.0 mi SSW 6.9 mph - N/A   Scattered Clouds
6:53 PM 46.9 °F - 21.0 °F 36% 29.89 in 10.0 mi WSW 8.1 mph - N/A   Scattered Clouds
7:53 PM 50.0 °F - 19.0 °F 29% 29.87 in 10.0 mi West 9.2 mph - N/A   Scattered Clouds
8:53 PM 48.0 °F - 18.0 °F 30% 29.85 in 10.0 mi West 9.2 mph - N/A   Scattered Clouds
9:53 PM 52.0 °F - 16.0 °F 24% 29.81 in 10.0 mi WSW 8.1 mph - N/A   Mostly Cloudy
10:38 PM 44.6 °F 40.2 °F 19.4 °F 37% 29.92 in 10.0 mi SW 8.1 mph - N/A   Mostly Cloudy
10:53 PM 41.0 °F 35.2 °F 19.9 °F 43% 29.82 in 10.0 mi SW 9.2 mph - N/A   Scattered Clouds
11:53 PM 39.9 °F 33.9 °F 21.0 °F 47% 29.80 in 10.0 mi SSW 9.2 mph - N/A   Mostly Cloudy